When you browse on this site, cookies collect data to enhance your experience and personalize the content and advertising you see.
Visit our Privacy Policy to learn more. By continuing to use the site, you agree to this use of cookies and data.

Stündliche Wetter Warwick

Heute, 7 Juli, Dienstag

Zeit Temperatur Niederschläge Wind Luftdruck Luftfeuchtigkeit
00:00 +10°C° 0 mm 2 m/S 761 mmHg 88%
01:00 +10°C° 0 mm 2 m/S 761 mmHg 88%
02:00 +10°C° 0 mm 2 m/S 761 mmHg 87%
03:00 +10°C° 0 mm 2 m/S 761 mmHg 87%
04:00 +10°C° 0 mm 2 m/S 760 mmHg 86%
05:00 +12°C° 0 mm 2 m/S 760 mmHg 85%
06:00 +13°C° 0 mm 2 m/S 760 mmHg 89%
07:00 +13°C° 0.1 mm 3 m/S 760 mmHg 85%
08:00 +14°C° 0.1 mm 3 m/S 760 mmHg 82%
09:00 +15°C° 0.1 mm 4 m/S 760 mmHg 78%
10:00 +15°C° 0.1 mm 4 m/S 759 mmHg 80%
11:00 +14°C° 0.1 mm 4 m/S 759 mmHg 82%
12:00 +14°C° 0.1 mm 3 m/S 759 mmHg 83%
13:00 +14°C° 0.3 mm 3 m/S 759 mmHg 84%
14:00 +14°C° 0.3 mm 3 m/S 758 mmHg 85%
15:00 +13°C° 0.3 mm 3 m/S 758 mmHg 86%
16:00 +13°C° 0.8 mm 3 m/S 757 mmHg 89%
17:00 +13°C° 0.8 mm 3 m/S 757 mmHg 92%
18:00 +12°C° 0.8 mm 3 m/S 756 mmHg 94%
19:00 +13°C° 0.6 mm 3 m/S 756 mmHg 95%
20:00 +13°C° 0.6 mm 4 m/S 756 mmHg 95%
21:00 +14°C° 0.6 mm 5 m/S 756 mmHg 96%
22:00 +14°C° 1 mm 5 m/S 755 mmHg 96%
23:00 +14°C° 1 mm 5 m/S 755 mmHg 96%

Morgen, 8 Juli, Mittwoch

Zeit Temperatur Niederschläge Wind Luftdruck Luftfeuchtigkeit
00:00 +15°C° 1 mm 5 m/S 755 mmHg 96%
01:00 +15°C° 0.6 mm 5 m/S 755 mmHg 96%
02:00 +15°C° 0.6 mm 4 m/S 754 mmHg 96%
03:00 +15°C° 0.6 mm 4 m/S 754 mmHg 96%
04:00 +16°C° 0.2 mm 3 m/S 754 mmHg 96%
05:00 +14°C° 0.2 mm 3 m/S 754 mmHg 96%
06:00 +15°C° 0.2 mm 2 m/S 754 mmHg 96%
07:00 +16°C° 0.1 mm 2 m/S 755 mmHg 94%
08:00 +16°C° 0.1 mm 2 m/S 755 mmHg 93%
09:00 +16°C° 0.1 mm 2 m/S 756 mmHg 92%
10:00 +16°C° 0.2 mm 2 m/S 756 mmHg 89%
11:00 +17°C° 0.2 mm 2 m/S 756 mmHg 87%
12:00 +17°C° 0.2 mm 2 m/S 756 mmHg 84%
13:00 +18°C° 0.2 mm 2 m/S 756 mmHg 84%
14:00 +18°C° 0.2 mm 2 m/S 756 mmHg 84%
15:00 +18°C° 0.2 mm 2 m/S 756 mmHg 84%
16:00 +17°C° 0.3 mm 2 m/S 756 mmHg 87%
17:00 +17°C° 0.3 mm 2 m/S 756 mmHg 91%
18:00 +16°C° 0.3 mm 2 m/S 756 mmHg 94%
19:00 +16°C° 0.7 mm 2 m/S 756 mmHg 95%
20:00 +16°C° 0.7 mm 2 m/S 756 mmHg 96%
21:00 +16°C° 0.7 mm 3 m/S 756 mmHg 97%
22:00 +16°C° 1.2 mm 3 m/S 755 mmHg 97%
23:00 +15°C° 1.2 mm 4 m/S 755 mmHg 97%

übermorgen, 9 Juli, Donnerstag

Zeit Temperatur Niederschläge Wind Luftdruck Luftfeuchtigkeit
00:00 +15°C° 1.2 mm 4 m/S 755 mmHg 96%
01:00 +15°C° 0.2 mm 4 m/S 755 mmHg 96%
02:00 +15°C° 0.2 mm 5 m/S 754 mmHg 96%
03:00 +15°C° 0.2 mm 5 m/S 754 mmHg 95%
04:00 +15°C° 0.1 mm 5 m/S 754 mmHg 95%
05:00 +15°C° 0.1 mm 4 m/S 754 mmHg 96%
06:00 +15°C° 0.1 mm 4 m/S 753 mmHg 96%
07:00 +17°C° 0.2 mm 4 m/S 753 mmHg 95%
08:00 +17°C° 0.2 mm 4 m/S 753 mmHg 95%
09:00 +17°C° 0.2 mm 4 m/S 753 mmHg 94%
10:00 +17°C° 0.1 mm 5 m/S 753 mmHg 93%
11:00 +17°C° 0.1 mm 5 m/S 753 mmHg 91%
12:00 +19°C° 0.1 mm 5 m/S 752 mmHg 90%
13:00 +19°C° 0.2 mm 5 m/S 752 mmHg 90%
14:00 +19°C° 0.2 mm 5 m/S 752 mmHg 89%
15:00 +19°C° 0.2 mm 5 m/S 752 mmHg 89%
16:00 +17°C° 0.1 mm 5 m/S 752 mmHg 90%
17:00 +17°C° 0.1 mm 5 m/S 752 mmHg 90%
18:00 +18°C° 0.1 mm 4 m/S 752 mmHg 90%
19:00 +17°C° 0.1 mm 4 m/S 752 mmHg 91%
20:00 +15°C° 0.1 mm 4 m/S 752 mmHg 91%
21:00 +14°C° 0.1 mm 4 m/S 753 mmHg 91%
22:00 +14°C° 0 mm 4 m/S 753 mmHg 91%
23:00 +13°C° 0 mm 4 m/S 753 mmHg 91%

10 Juli, Freitag

Zeit Temperatur Niederschläge Wind Luftdruck Luftfeuchtigkeit
00:00 +12°C° 0 mm 4 m/S 754 mmHg 92%
01:00 +10°C° 0 mm 5 m/S 754 mmHg 90%
02:00 +10°C° 0 mm 5 m/S 754 mmHg 89%
03:00 +9°C° 0 mm 5 m/S 754 mmHg 88%
04:00 +9°C° 0 mm 5 m/S 755 mmHg 87%
05:00 +9°C° 0 mm 5 m/S 755 mmHg 86%
06:00 +9°C° 0 mm 6 m/S 755 mmHg 85%
07:00 +10°C° 0 mm 6 m/S 756 mmHg 80%
08:00 +13°C° 0 mm 6 m/S 756 mmHg 76%
09:00 +14°C° 0 mm 6 m/S 757 mmHg 72%
10:00 +15°C° 0.1 mm 7 m/S 757 mmHg 70%
11:00 +16°C° 0.1 mm 7 m/S 758 mmHg 68%
12:00 +17°C° 0.1 mm 7 m/S 758 mmHg 65%
13:00 +17°C° 0.1 mm 7 m/S 758 mmHg 66%
14:00 +17°C° 0.1 mm 7 m/S 758 mmHg 66%
15:00 +17°C° 0.1 mm 7 m/S 759 mmHg 66%
16:00 +16°C° 0.1 mm 6 m/S 759 mmHg 67%
17:00 +16°C° 0.1 mm 6 m/S 759 mmHg 68%
18:00 +15°C° 0.1 mm 5 m/S 760 mmHg 69%
19:00 +14°C° 0 mm 4 m/S 760 mmHg 72%
20:00 +12°C° 0 mm 4 m/S 761 mmHg 74%
21:00 +11°C° 0 mm 3 m/S 762 mmHg 77%
22:00 +10°C° 0 mm 3 m/S 762 mmHg 79%
23:00 +10°C° 0 mm 3 m/S 762 mmHg 82%

11 Juli, Samstag

Zeit Temperatur Niederschläge Wind Luftdruck Luftfeuchtigkeit
00:00 +9°C° 0 mm 3 m/S 762 mmHg 85%
01:00 +9°C° 0 mm 3 m/S 763 mmHg 86%
02:00 +9°C° 0 mm 3 m/S 763 mmHg 88%
03:00 +8°C° 0 mm 3 m/S 763 mmHg 89%
04:00 +9°C° 0 mm 3 m/S 763 mmHg 87%
05:00 +10°C° 0 mm 3 m/S 763 mmHg 86%
06:00 +11°C° 0 mm 3 m/S 764 mmHg 84%
07:00 +12°C° 0 mm 3 m/S 764 mmHg 79%
08:00 +14°C° 0 mm 4 m/S 764 mmHg 74%
09:00 +15°C° 0 mm 4 m/S 764 mmHg 69%
10:00 +17°C° 0 mm 4 m/S 764 mmHg 65%
11:00 +18°C° 0 mm 4 m/S 765 mmHg 61%
12:00 +19°C° 0 mm 3 m/S 765 mmHg 57%
13:00 +19°C° 0 mm 3 m/S 765 mmHg 57%
14:00 +19°C° 0 mm 3 m/S 765 mmHg 58%
15:00 +19°C° 0 mm 3 m/S 765 mmHg 58%
16:00 +19°C° 0 mm 3 m/S 764 mmHg 61%
17:00 +18°C° 0 mm 3 m/S 764 mmHg 64%
18:00 +18°C° 0 mm 2 m/S 764 mmHg 66%
19:00 +16°C° 0 mm 2 m/S 765 mmHg 69%
20:00 +15°C° 0 mm 2 m/S 765 mmHg 73%
21:00 +13°C° 0 mm 2 m/S 766 mmHg 76%
22:00 +12°C° 0 mm 2 m/S 766 mmHg 77%
23:00 +12°C° 0 mm 1 m/S 766 mmHg 77%

12 Juli, Sonntag

Zeit Temperatur Niederschläge Wind Luftdruck Luftfeuchtigkeit
00:00 +11°C° 0 mm 1 m/S 766 mmHg 78%
01:00 +10°C° 0 mm 1 m/S 766 mmHg 79%
02:00 +10°C° 0 mm 1 m/S 766 mmHg 80%
03:00 +9°C° 0 mm 0 m/S 766 mmHg 81%
04:00 +11°C° 0 mm 1 m/S 766 mmHg 80%
05:00 +11°C° 0 mm 1 m/S 766 mmHg 78%
06:00 +12°C° 0 mm 1 m/S 766 mmHg 76%
07:00 +14°C° 0 mm 1 m/S 766 mmHg 72%
08:00 +15°C° 0 mm 1 m/S 766 mmHg 67%
09:00 +16°C° 0 mm 0 m/S 766 mmHg 63%
10:00 +19°C° 0 mm 1 m/S 766 mmHg 60%
11:00 +20°C° 0 mm 1 m/S 766 mmHg 57%
12:00 +21°C° 0 mm 1 m/S 766 mmHg 54%
13:00 +22°C° 0 mm 1 m/S 766 mmHg 52%
14:00 +22°C° 0 mm 1 m/S 766 mmHg 51%
15:00 +23°C° 0 mm 1 m/S 765 mmHg 50%
16:00 +22°C° 0 mm 1 m/S 765 mmHg 54%
17:00 +22°C° 0 mm 1 m/S 765 mmHg 58%
18:00 +22°C° 0 mm 1 m/S 765 mmHg 62%
19:00 +20°C° 0 mm 1 m/S 765 mmHg 65%
20:00 +16°C° 0 mm 0 m/S 765 mmHg 68%
21:00 +15°C° 0 mm 0 m/S 765 mmHg 71%
22:00 +14°C° 0 mm 0 m/S 765 mmHg 72%
23:00 +15°C° 0 mm 1 m/S 765 mmHg 74%
Mehr zeigen